When you browse on this site, cookies collect data to enhance your experience and personalize the content and advertising you see.
Visit our Privacy Policy to learn more. By continuing to use the site, you agree to this use of cookies and data.
EN

Hourly Weather Andrushevka

Today, 8 July, Wednesday

Time Temperature Precipitation Wind Pressure Humidity
00:00 +14°C° 0.2 mm 6 mps 739 mmHg 75%
01:00 +13°C° 0.2 mm 5 mps 739 mmHg 83%
02:00 +13°C° 0.2 mm 5 mps 739 mmHg 90%
03:00 +13°C° 0.1 mm 5 mps 739 mmHg 91%
04:00 +12°C° 0.1 mm 5 mps 740 mmHg 92%
05:00 +12°C° 0.1 mm 5 mps 740 mmHg 93%
06:00 +13°C° 0 mm 5 mps 740 mmHg 89%
07:00 +14°C° 0 mm 5 mps 740 mmHg 84%
08:00 +15°C° 0 mm 5 mps 741 mmHg 79%
09:00 +16°C° 0 mm 5 mps 741 mmHg 73%
10:00 +17°C° 0 mm 6 mps 741 mmHg 67%
11:00 +19°C° 0 mm 6 mps 741 mmHg 61%
12:00 +19°C° 0 mm 6 mps 741 mmHg 60%
13:00 +20°C° 0 mm 6 mps 741 mmHg 59%
14:00 +20°C° 0 mm 5 mps 741 mmHg 57%
15:00 +20°C° 0 mm 5 mps 741 mmHg 58%
16:00 +20°C° 0 mm 5 mps 741 mmHg 60%
17:00 +20°C° 0 mm 4 mps 742 mmHg 61%
18:00 +18°C° 0 mm 4 mps 742 mmHg 67%
19:00 +17°C° 0 mm 3 mps 742 mmHg 74%
20:00 +16°C° 0 mm 2 mps 742 mmHg 81%
21:00 +15°C° 0 mm 2 mps 742 mmHg 82%
22:00 +14°C° 0 mm 2 mps 742 mmHg 84%
23:00 +13°C° 0 mm 2 mps 742 mmHg 86%

Tomorrow, 9 July, Thursday

Time Temperature Precipitation Wind Pressure Humidity
00:00 +13°C° 0 mm 2 mps 743 mmHg 87%
01:00 +13°C° 0 mm 2 mps 743 mmHg 88%
02:00 +13°C° 0 mm 2 mps 743 mmHg 88%
03:00 +13°C° 0 mm 2 mps 743 mmHg 89%
04:00 +13°C° 0 mm 2 mps 743 mmHg 89%
05:00 +13°C° 0 mm 2 mps 743 mmHg 89%
06:00 +13°C° 0 mm 2 mps 743 mmHg 88%
07:00 +14°C° 0 mm 2 mps 743 mmHg 86%
08:00 +15°C° 0 mm 2 mps 743 mmHg 85%
09:00 +15°C° 0 mm 2 mps 744 mmHg 85%
10:00 +16°C° 0 mm 3 mps 744 mmHg 85%
11:00 +16°C° 0 mm 3 mps 744 mmHg 85%
12:00 +18°C° 0.2 mm 3 mps 744 mmHg 79%
13:00 +19°C° 0.2 mm 3 mps 744 mmHg 74%
14:00 +20°C° 0.2 mm 3 mps 744 mmHg 68%
15:00 +20°C° 0.2 mm 3 mps 744 mmHg 69%
16:00 +20°C° 0.2 mm 3 mps 744 mmHg 71%
17:00 +20°C° 0.2 mm 3 mps 744 mmHg 72%
18:00 +19°C° 0 mm 2 mps 744 mmHg 77%
19:00 +17°C° 0 mm 2 mps 744 mmHg 82%
20:00 +16°C° 0 mm 2 mps 744 mmHg 87%
21:00 +15°C° 0 mm 2 mps 744 mmHg 88%
22:00 +15°C° 0 mm 2 mps 744 mmHg 89%
23:00 +14°C° 0 mm 2 mps 745 mmHg 91%

Day after tomorrow, 10 July, Friday

Time Temperature Precipitation Wind Pressure Humidity
00:00 +14°C° 0 mm 1 mps 745 mmHg 91%
01:00 +13°C° 0 mm 1 mps 745 mmHg 91%
02:00 +13°C° 0 mm 1 mps 745 mmHg 92%
03:00 +13°C° 0 mm 1 mps 745 mmHg 92%
04:00 +13°C° 0 mm 1 mps 745 mmHg 91%
05:00 +13°C° 0 mm 1 mps 745 mmHg 91%
06:00 +15°C° 0 mm 1 mps 745 mmHg 86%
07:00 +18°C° 0 mm 1 mps 745 mmHg 80%
08:00 +19°C° 0 mm 1 mps 746 mmHg 74%
09:00 +21°C° 0 mm 1 mps 746 mmHg 69%
10:00 +21°C° 0 mm 2 mps 746 mmHg 63%
11:00 +23°C° 0 mm 2 mps 746 mmHg 58%
12:00 +24°C° 0 mm 2 mps 746 mmHg 56%
13:00 +24°C° 0 mm 2 mps 746 mmHg 54%
14:00 +25°C° 0 mm 2 mps 745 mmHg 52%
15:00 +25°C° 0 mm 2 mps 745 mmHg 53%
16:00 +25°C° 0 mm 2 mps 745 mmHg 55%
17:00 +25°C° 0 mm 2 mps 745 mmHg 56%
18:00 +24°C° 0 mm 2 mps 745 mmHg 62%
19:00 +21°C° 0 mm 2 mps 745 mmHg 68%
20:00 +19°C° 0 mm 2 mps 745 mmHg 74%
21:00 +19°C° 0 mm 3 mps 745 mmHg 74%
22:00 +18°C° 0 mm 3 mps 745 mmHg 75%
23:00 +17°C° 0 mm 3 mps 745 mmHg 75%

11 July, Saturday

Time Temperature Precipitation Wind Pressure Humidity
00:00 +17°C° 0 mm 3 mps 745 mmHg 75%
01:00 +17°C° 0 mm 3 mps 744 mmHg 76%
02:00 +16°C° 0 mm 3 mps 744 mmHg 76%
03:00 +16°C° 0 mm 3 mps 744 mmHg 77%
04:00 +16°C° 0 mm 3 mps 744 mmHg 78%
05:00 +16°C° 0 mm 3 mps 744 mmHg 80%
06:00 +18°C° 0 mm 4 mps 744 mmHg 77%
07:00 +20°C° 0 mm 4 mps 744 mmHg 75%
08:00 +22°C° 0 mm 5 mps 744 mmHg 73%
09:00 +23°C° 0 mm 5 mps 744 mmHg 70%
10:00 +26°C° 0 mm 5 mps 745 mmHg 67%
11:00 +27°C° 0 mm 5 mps 745 mmHg 64%
12:00 +28°C° 0.2 mm 5 mps 744 mmHg 64%
13:00 +28°C° 0.2 mm 5 mps 744 mmHg 63%
14:00 +28°C° 0.2 mm 5 mps 744 mmHg 63%
15:00 +28°C° 0.3 mm 4 mps 743 mmHg 65%
16:00 +28°C° 0.3 mm 4 mps 743 mmHg 66%
17:00 +28°C° 0.3 mm 4 mps 743 mmHg 68%
18:00 +26°C° 0.6 mm 4 mps 743 mmHg 74%
19:00 +24°C° 0.6 mm 3 mps 743 mmHg 79%
20:00 +22°C° 0.6 mm 3 mps 743 mmHg 85%
21:00 +21°C° 0.1 mm 3 mps 743 mmHg 86%
22:00 +20°C° 0.1 mm 3 mps 743 mmHg 87%
23:00 +19°C° 0.1 mm 3 mps 743 mmHg 88%

12 July, Sunday

Time Temperature Precipitation Wind Pressure Humidity
00:00 +19°C° 0 mm 3 mps 742 mmHg 87%
01:00 +18°C° 0 mm 3 mps 742 mmHg 86%
02:00 +18°C° 0 mm 3 mps 742 mmHg 86%
03:00 +17°C° 0 mm 3 mps 742 mmHg 85%
04:00 +17°C° 0 mm 3 mps 742 mmHg 84%
05:00 +17°C° 0 mm 3 mps 742 mmHg 83%
06:00 +18°C° 0 mm 3 mps 742 mmHg 78%
07:00 +20°C° 0 mm 3 mps 742 mmHg 74%
08:00 +22°C° 0 mm 3 mps 742 mmHg 69%
09:00 +24°C° 0 mm 3 mps 742 mmHg 65%
10:00 +26°C° 0 mm 3 mps 742 mmHg 61%
11:00 +27°C° 0 mm 3 mps 742 mmHg 57%
12:00 +28°C° 0.1 mm 4 mps 742 mmHg 56%
13:00 +28°C° 0.1 mm 4 mps 741 mmHg 55%
14:00 +28°C° 0.1 mm 4 mps 741 mmHg 54%
15:00 +26°C° 0.7 mm 4 mps 741 mmHg 64%
16:00 +23°C° 0.7 mm 5 mps 741 mmHg 73%
17:00 +21°C° 0.7 mm 6 mps 741 mmHg 83%
18:00 +19°C° 0.3 mm 6 mps 741 mmHg 86%
19:00 +16°C° 0.3 mm 6 mps 741 mmHg 89%
20:00 +14°C° 0.3 mm 6 mps 742 mmHg 92%
21:00 +14°C° 0.6 mm 6 mps 742 mmHg 93%
22:00 +13°C° 0.6 mm 6 mps 742 mmHg 93%
23:00 +13°C° 0.6 mm 5 mps 742 mmHg 94%

13 July, Monday

Time Temperature Precipitation Wind Pressure Humidity
00:00 +11°C° 1.2 mm 6 mps 742 mmHg 94%
01:00 +11°C° 1.2 mm 6 mps 742 mmHg 95%
02:00 +11°C° 1.2 mm 6 mps 741 mmHg 95%
03:00 +11°C° 2.3 mm 6 mps 741 mmHg 95%
04:00 +12°C° 2.3 mm 5 mps 741 mmHg 96%
05:00 +12°C° 2.3 mm 5 mps 741 mmHg 96%
06:00 +12°C° 0.8 mm 5 mps 741 mmHg 96%
07:00 +12°C° 0.8 mm 5 mps 740 mmHg 96%
08:00 +12°C° 0.8 mm 5 mps 740 mmHg 95%
09:00 +12°C° 2 mm 5 mps 740 mmHg 96%
10:00 +12°C° 2 mm 5 mps 740 mmHg 96%
11:00 +11°C° 2 mm 6 mps 740 mmHg 96%
12:00 +11°C° 0.9 mm 6 mps 740 mmHg 96%
13:00 +12°C° 0.9 mm 5 mps 740 mmHg 95%
14:00 +13°C° 0.9 mm 5 mps 740 mmHg 95%
15:00 +13°C° 0.8 mm 6 mps 740 mmHg 95%
16:00 +13°C° 0.8 mm 6 mps 739 mmHg 95%
17:00 +13°C° 0.8 mm 6 mps 739 mmHg 95%
18:00 +13°C° 0.5 mm 6 mps 739 mmHg 95%
19:00 +13°C° 0.5 mm 5 mps 739 mmHg 95%
20:00 +13°C° 0.5 mm 5 mps 738 mmHg 95%
21:00 +13°C° 1 mm 5 mps 738 mmHg 96%
22:00 +13°C° 1 mm 5 mps 738 mmHg 97%
23:00 +13°C° 1 mm 5 mps 738 mmHg 97%
Show more